[[{"header":{"parameterUnit":"m.s-1","parameterCategory":1,"la1":30.2991,"la2":30.254,"lo1":-89.0895,"lo2":-89.0444,"dy":0.0017,"dx":0.0017,"nx":28,"ny":28,"refTime":"2024-09-26T03:00:00:Z","depth":0,"parameterNumber":2,"parameterNumberName":"U-component_of_WINDS"},"data":[0,0,0,0,0,0,0,0,0,0,0,0,0,0,0,0,0,0,0,0,0,0,0,0,0,0,0,0,0,0,0,0,0,0,0,0,0,0,0,0,0,0,0,0,0,0,0,0,0,0,0,0,0,0,0,0,0,0,-0.2016,-0.2015,0,-0.1928,-0.1927,-0.1926,-0.1863,-0.1863,-0.1862,-0.1862,-0.1774,-0.1772,-0.1771,0,0,0,0,0,0,0,0,0,0,0,0,0,-0.2131,-0.2129,-0.2016,-0.2015,-0.2014,-0.1928,-0.1927,-0.1926,-0.1863,-0.1863,-0.1862,-0.1862,-0.1775,-0.1773,-0.177,0,0,0,0,0,0,0,0,0,0,0,0,0,-0.2066,-0.2128,-0.2016,-0.1972,-0.1967,-0.1928,-0.1927,-0.1925,-0.1863,-0.1863,-0.1862,-0.1861,-0.1776,-0.1773,-0.177,-0.1769,0,0,-0.1762,-0.176,0,0,0,0,0,0,0,0,-0.207,-0.2062,-0.198,-0.1975,-0.197,-0.1906,-0.1935,-0.1873,-0.1864,-0.1903,-0.1862,-0.1861,-0.1819,-0.1812,-0.1798,-0.1764,-0.1761,-0.1761,-0.176,-0.1759,-0.1758,0,0,0,0,0,0,0,-0.2074,-0.2065,-0.1981,-0.1979,-0.1972,-0.1957,-0.1947,-0.1923,-0.1866,-0.1899,-0.1895,-0.1885,-0.1816,-0.1801,-0.1795,-0.1759,-0.1762,-0.1759,-0.1757,-0.1756,-0.1721,-0.1722,0,0,0,0,0,0,-0.2085,-0.2069,-0.1984,-0.1978,-0.2019,-0.1956,-0.1945,-0.1927,-0.1866,-0.1856,-0.1886,-0.1882,-0.1806,-0.1799,-0.1792,-0.1787,-0.1759,-0.1756,-0.1754,-0.172,-0.1721,-0.1722,0,0,0,0,0,0,-0.2088,-0.2078,-0.1987,-0.2022,-0.201,-0.1955,-0.1936,-0.1926,-0.191,-0.1856,-0.1846,-0.1881,-0.1805,-0.1796,-0.1775,-0.1783,-0.1755,-0.1752,-0.172,-0.1721,-0.1722,-0.1777,0,0,0,0,0,0,-0.2091,-0.208,-0.2078,-0.2023,-0.2008,-0.1971,-0.1936,-0.1925,-0.1905,-0.19,-0.1848,-0.1839,-0.1803,-0.1779,-0.1772,-0.1779,-0.175,-0.1719,-0.172,-0.1721,-0.1774,-0.178,-0.1784,0,0,0,0,0,-0.2096,-0.2097,-0.2078,-0.2068,-0.2005,-0.1972,-0.1964,-0.1922,-0.1906,-0.1905,-0.187,-0.1841,-0.1783,-0.1778,-0.1769,-0.1775,-0.1718,-0.172,-0.1721,-0.1772,-0.1778,-0.1784,0,0,0,0,0,0,-0.2156,-0.2089,-0.2068,-0.2051,-0.2018,-0.1962,-0.1958,-0.193,-0.1901,-0.1898,-0.1848,-0.1837,-0.1821,-0.1795,-0.1791,-0.177,-0.1747,-0.1747,-0.1788,-0.1794,-0.1799,-0.1807,-0.1748,0,0,0,0,0,-0.2167,-0.2145,-0.2088,-0.2079,-0.2064,-0.2014,-0.1998,-0.1969,-0.1932,-0.1918,-0.1882,-0.1848,-0.1822,-0.1806,-0.178,-0.1769,-0.1758,-0.1769,-0.1774,-0.1779,-0.178,-0.1774,-0.1778,-0.1728,-0.1728,-0.1727,0,0,-0.219,-0.2151,-0.2141,-0.209,-0.2061,-0.204,-0.2003,-0.1982,-0.1966,-0.1915,-0.1893,-0.1865,-0.1824,-0.1809,-0.1801,-0.1787,-0.1791,-0.1781,-0.1785,-0.1783,-0.1776,-0.1781,-0.1785,-0.1729,-0.1728,-0.1728,0,0,-0.2222,-0.219,-0.2179,-0.215,-0.2106,-0.2073,-0.207,-0.2018,-0.1997,-0.1974,-0.1936,-0.1916,-0.1873,-0.1846,-0.1826,-0.1847,-0.182,-0.184,-0.1868,-0.1862,-0.1866,-0.187,-0.1879,-0.1882,-0.1841,-0.1841,-0.1841,0,-0.2257,-0.2224,-0.2177,-0.2159,-0.2139,-0.209,-0.208,-0.2054,-0.2004,-0.1991,-0.1976,-0.1921,-0.189,-0.1868,-0.1873,-0.1858,-0.1855,-0.1846,-0.1869,-0.1872,-0.1874,-0.1883,-0.1886,-0.1844,-0.1843,-0.1843,-0.1843,0,-0.2269,-0.2247,-0.2243,-0.2196,-0.2174,-0.216,-0.2113,-0.2097,-0.2069,-0.2038,-0.2015,-0.1976,-0.1941,-0.1933,-0.1906,-0.1907,-0.1901,-0.1878,-0.1854,-0.1883,-0.189,-0.1893,-0.1848,-0.1847,-0.1846,-0.1845,0,0,-0.2338,-0.2264,-0.2264,-0.2242,-0.2189,-0.2171,-0.2155,-0.2119,-0.2108,-0.2074,-0.206,-0.2024,-0.2003,-0.1981,-0.195,-0.1945,-0.1966,-0.1923,-0.1921,-0.1934,-0.1967,-0.1985,-0.199,-0.1946,-0.1947,-0.1947,-0.1971,0,-0.2363,-0.2331,-0.2289,-0.2271,-0.2251,-0.2204,-0.2189,-0.2156,-0.2126,-0.2104,-0.2071,-0.2047,-0.202,-0.2007,-0.1999,-0.1965,-0.1972,-0.1962,-0.1934,-0.1934,-0.1948,-0.1993,-0.2013,-0.2037,-0.1973,-0.1973,-0.1973,0,-0.2389,-0.2358,-0.2338,-0.2287,-0.2277,-0.2265,-0.2229,-0.2209,-0.217,-0.2148,-0.2124,-0.209,-0.2071,-0.2048,-0.2022,-0.2017,-0.2003,-0.1984,-0.1984,-0.1981,-0.1957,-0.1994,-0.2043,-0.2048,-0.1977,-0.1977,-0.1976,0,-0.2443,-0.2396,-0.2378,-0.236,-0.23,-0.2293,-0.2268,-0.2228,-0.221,-0.2179,-0.2167,-0.2134,-0.2117,-0.2093,-0.2052,-0.2038,-0.2031,-0.2004,-0.2014,-0.2015,-0.2016,-0.2017,-0.2067,-0.2004,-0.2004,-0.2004,-0.2004,0,-0.2477,-0.2467,-0.2402,-0.2391,-0.2379,-0.233,-0.232,-0.229,-0.2255,-0.2239,-0.2195,-0.2181,-0.2127,-0.2106,-0.2074,-0.2058,-0.205,-0.2034,-0.2026,-0.2039,-0.2041,-0.203,-0.2028,-0.2005,-0.2005,-0.2005,-0.2004,0,-0.2537,-0.2492,-0.247,-0.2415,-0.24,-0.2394,-0.2347,-0.2335,-0.2302,-0.2282,-0.2274,-0.2223,-0.2196,-0.2152,-0.2113,-0.2091,-0.2082,-0.2067,-0.2096,-0.2091,-0.2104,-0.2105,-0.2151,-0.2155,-0.2088,-0.2088,-0.2089,0,-0.2562,-0.2554,-0.2497,-0.2483,-0.2459,-0.2436,-0.2417,-0.2368,-0.235,-0.2305,-0.2299,-0.2269,-0.2242,-0.2202,-0.2162,-0.2132,-0.2117,-0.2135,-0.2113,-0.2127,-0.212,-0.2122,-0.2122,-0.2142,-0.2143,-0.2143,-0.2144,0,-0.2613,-0.2591,-0.2565,-0.2532,-0.251,-0.2481,-0.245,-0.2441,-0.2385,-0.2368,-0.2339,-0.2319,-0.2278,-0.225,-0.2214,-0.2188,-0.2158,-0.2151,-0.2152,-0.2167,-0.2184,-0.2177,-0.2112,-0.2151,-0.215,-0.215,-0.2149,-0.2149,-0.2657,-0.2648,-0.2607,-0.2579,-0.2551,-0.2523,-0.2509,-0.2474,-0.245,-0.2413,-0.2385,-0.236,-0.2321,-0.227,-0.2246,-0.2226,-0.2212,-0.2213,-0.2214,-0.2215,-0.2221,-0.2185,-0.2219,-0.2218,-0.2218,-0.2218,-0.2218,0,-0.2708,-0.2679,-0.2654,-0.2612,-0.259,-0.2561,-0.2525,-0.251,-0.2488,-0.2454,-0.2428,-0.2396,-0.2368,-0.2325,-0.2294,-0.2286,-0.2271,-0.228,-0.2281,-0.2276,-0.2234,-0.2237,-0.2292,-0.2292,-0.2292,-0.2292,-0.2292,-0.2292,-0.2731,-0.2714,-0.2688,-0.2656,-0.2627,-0.2601,-0.2583,-0.2558,-0.253,-0.2497,-0.2473,-0.2444,-0.2407,-0.2373,-0.2346,-0.2334,-0.2326,-0.2339,-0.2323,-0.2286,-0.2279,-0.2272,-0.2275,-0.2337,-0.2337,-0.2366,-0.2367,-0.2367]},{"header":{"parameterUnit":"m.s-1","parameterCategory":1,"la1":30.2991,"la2":30.254,"lo1":-89.0895,"lo2":-89.0444,"dy":0.0017,"dx":0.0017,"nx":28,"ny":28,"refTime":"2024-09-26T03:00:00:Z","depth":0,"parameterNumber":3,"parameterNumberName":"V-component_of_WINDS"},"data":[0,0,0,0,0,0,0,0,0,0,0,0,0,0,0,0,0,0,0,0,0,0,0,0,0,0,0,0,0,0,0,0,0,0,0,0,0,0,0,0,0,0,0,0,0,0,0,0,0,0,0,0,0,0,0,0,0,0,-1.6178,-1.6177,0,-1.6078,-1.6077,-1.6076,-1.6034,-1.6034,-1.6034,-1.6035,-1.5927,-1.5924,-1.5921,0,0,0,0,0,0,0,0,0,0,0,0,0,-1.6327,-1.6325,-1.6178,-1.6176,-1.6175,-1.6078,-1.6077,-1.6076,-1.6034,-1.6034,-1.6034,-1.6035,-1.5928,-1.5924,-1.5921,0,0,0,0,0,0,0,0,0,0,0,0,0,-1.6248,-1.6324,-1.6178,-1.6143,-1.6139,-1.6079,-1.6077,-1.6075,-1.6034,-1.6034,-1.6034,-1.6035,-1.5929,-1.5925,-1.592,-1.5886,0,0,-1.5906,-1.5904,0,0,0,0,0,0,0,0,-1.6253,-1.6243,-1.6149,-1.6145,-1.6141,-1.6069,-1.609,-1.6011,-1.6034,-1.6074,-1.6035,-1.6035,-1.5973,-1.5965,-1.5946,-1.588,-1.5876,-1.5906,-1.5903,-1.5901,-1.59,0,0,0,0,0,0,0,-1.6258,-1.6247,-1.6138,-1.6148,-1.6143,-1.6131,-1.612,-1.6075,-1.6023,-1.607,-1.6067,-1.6056,-1.5971,-1.595,-1.5943,-1.5874,-1.5906,-1.5902,-1.5899,-1.5897,-1.5776,-1.5776,0,0,0,0,0,0,-1.627,-1.6252,-1.6141,-1.6135,-1.6199,-1.6128,-1.6116,-1.6091,-1.6023,-1.6013,-1.6056,-1.6054,-1.5958,-1.5948,-1.5939,-1.5894,-1.5901,-1.5897,-1.5894,-1.5776,-1.5776,-1.5775,0,0,0,0,0,0,-1.6274,-1.6261,-1.6145,-1.6192,-1.6177,-1.6125,-1.6098,-1.6089,-1.6069,-1.6012,-1.6002,-1.6044,-1.5958,-1.5945,-1.59,-1.589,-1.5895,-1.589,-1.5777,-1.5776,-1.5776,-1.5805,0,0,0,0,0,0,-1.6278,-1.6262,-1.625,-1.6193,-1.6175,-1.6109,-1.6097,-1.6087,-1.6061,-1.6059,-1.5999,-1.5989,-1.5957,-1.5907,-1.5895,-1.5884,-1.5887,-1.5778,-1.5777,-1.5776,-1.5805,-1.5806,-1.5806,0,0,0,0,0,-1.6284,-1.6261,-1.6249,-1.6236,-1.6158,-1.6109,-1.6098,-1.6063,-1.6061,-1.6047,-1.6011,-1.5991,-1.5893,-1.5902,-1.5889,-1.5876,-1.5778,-1.5777,-1.5776,-1.5804,-1.5805,-1.5806,0,0,0,0,0,0,-1.6315,-1.6252,-1.6239,-1.6197,-1.6159,-1.6102,-1.6083,-1.6065,-1.6025,-1.6024,-1.598,-1.5967,-1.5925,-1.5896,-1.5907,-1.5839,-1.5834,-1.583,-1.586,-1.5861,-1.5861,-1.5869,-1.5883,0,0,0,0,0,-1.6318,-1.6285,-1.6231,-1.6199,-1.6181,-1.6136,-1.6113,-1.6089,-1.6047,-1.603,-1.5991,-1.5949,-1.5909,-1.5883,-1.5843,-1.58,-1.5787,-1.5785,-1.5786,-1.5787,-1.5784,-1.5759,-1.5758,-1.5772,-1.5772,-1.5772,0,0,-1.6322,-1.6284,-1.6265,-1.6205,-1.6172,-1.6138,-1.6122,-1.6086,-1.606,-1.6024,-1.5979,-1.5949,-1.5899,-1.5855,-1.5834,-1.583,-1.5777,-1.5785,-1.5786,-1.5783,-1.5758,-1.5757,-1.5756,-1.5771,-1.5771,-1.5771,0,0,-1.6313,-1.628,-1.6251,-1.6219,-1.6171,-1.6141,-1.6135,-1.608,-1.606,-1.6014,-1.5987,-1.5954,-1.5885,-1.5852,-1.5825,-1.5804,-1.5784,-1.5792,-1.5796,-1.5773,-1.5771,-1.577,-1.5763,-1.5761,-1.5789,-1.579,-1.579,0,-1.6323,-1.6272,-1.6237,-1.6204,-1.6178,-1.6146,-1.6115,-1.6085,-1.6026,-1.6008,-1.6004,-1.5919,-1.5883,-1.5831,-1.5826,-1.5806,-1.5796,-1.5799,-1.5775,-1.5773,-1.5772,-1.5764,-1.5761,-1.5791,-1.5791,-1.5791,-1.579,0,-1.6288,-1.6253,-1.6235,-1.6181,-1.6152,-1.612,-1.6079,-1.6055,-1.6034,-1.6004,-1.5958,-1.5914,-1.5865,-1.5851,-1.5829,-1.5796,-1.5795,-1.5784,-1.5777,-1.5772,-1.5764,-1.5761,-1.5793,-1.5792,-1.5792,-1.5791,0,0,-1.6295,-1.6224,-1.6218,-1.6193,-1.6138,-1.6109,-1.6075,-1.6029,-1.6009,-1.5969,-1.5939,-1.5882,-1.5872,-1.5843,-1.5816,-1.5796,-1.5783,-1.5787,-1.5785,-1.5788,-1.5743,-1.5752,-1.575,-1.5769,-1.5769,-1.5768,-1.5747,0,-1.6278,-1.6219,-1.6187,-1.6139,-1.6106,-1.6076,-1.6046,-1.6009,-1.598,-1.5947,-1.5914,-1.5875,-1.5864,-1.5846,-1.5825,-1.5789,-1.5773,-1.579,-1.574,-1.5738,-1.5754,-1.5745,-1.5754,-1.5737,-1.5744,-1.5744,-1.5743,0,-1.6251,-1.6214,-1.6164,-1.6114,-1.6099,-1.6073,-1.6029,-1.5998,-1.5954,-1.5934,-1.5902,-1.5877,-1.5839,-1.5836,-1.5782,-1.5794,-1.5771,-1.5751,-1.5749,-1.5743,-1.5741,-1.5739,-1.5731,-1.5728,-1.5738,-1.5738,-1.5739,0,-1.6262,-1.6199,-1.6162,-1.6141,-1.6082,-1.6065,-1.6039,-1.5996,-1.597,-1.5931,-1.5914,-1.5869,-1.5845,-1.5811,-1.5774,-1.5775,-1.5723,-1.5717,-1.5705,-1.5706,-1.5695,-1.5697,-1.5684,-1.5681,-1.5681,-1.5681,-1.5681,0,-1.6246,-1.6217,-1.6166,-1.6143,-1.6109,-1.6072,-1.6039,-1.601,-1.5973,-1.5942,-1.5912,-1.5884,-1.5837,-1.5803,-1.5773,-1.5733,-1.5722,-1.5704,-1.5697,-1.5707,-1.571,-1.5692,-1.5692,-1.568,-1.5681,-1.5681,-1.5681,0,-1.6253,-1.6217,-1.6175,-1.6123,-1.6109,-1.6086,-1.6041,-1.6016,-1.5987,-1.5949,-1.5938,-1.5891,-1.5849,-1.5809,-1.5751,-1.5732,-1.5691,-1.5681,-1.5707,-1.5703,-1.5694,-1.5695,-1.5668,-1.5663,-1.5665,-1.5665,-1.5665,0,-1.6245,-1.6223,-1.6169,-1.6148,-1.6123,-1.6089,-1.6064,-1.6026,-1.6001,-1.595,-1.5931,-1.5888,-1.5851,-1.5785,-1.5744,-1.5701,-1.5689,-1.5683,-1.5682,-1.5694,-1.5689,-1.5691,-1.5689,-1.5684,-1.5684,-1.5684,-1.5684,0,-1.6237,-1.6221,-1.6186,-1.6146,-1.6118,-1.6083,-1.6048,-1.6032,-1.5987,-1.596,-1.5918,-1.5889,-1.5833,-1.5789,-1.5741,-1.5712,-1.569,-1.5685,-1.568,-1.569,-1.5706,-1.5698,-1.571,-1.5686,-1.5686,-1.5685,-1.5685,-1.5685,-1.6236,-1.6215,-1.6174,-1.6137,-1.6107,-1.6075,-1.605,-1.6018,-1.5983,-1.5936,-1.5915,-1.5873,-1.5829,-1.5763,-1.5734,-1.5699,-1.5694,-1.5687,-1.5685,-1.5683,-1.5686,-1.5712,-1.569,-1.569,-1.569,-1.569,-1.569,0,-1.6226,-1.6199,-1.6165,-1.6118,-1.6088,-1.6073,-1.6033,-1.6009,-1.5973,-1.5935,-1.59,-1.5852,-1.581,-1.5767,-1.5722,-1.5702,-1.5691,-1.5692,-1.5693,-1.5686,-1.5693,-1.5702,-1.5702,-1.5702,-1.5702,-1.5702,-1.5702,-1.5702,-1.6217,-1.6181,-1.616,-1.6108,-1.608,-1.604,-1.6019,-1.5989,-1.5959,-1.5907,-1.5873,-1.5846,-1.5805,-1.5758,-1.5718,-1.5706,-1.5691,-1.5694,-1.568,-1.5686,-1.5686,-1.5685,-1.5693,-1.5691,-1.5691,-1.5676,-1.5676,-1.5676]}]]